Theta_e
353 355 356 358 358 357 357 356 355 355 354 354 355 355 354 355 356 356 356 356 356 357 356 355 356 355 355 355 354 353 352 352 351 350 349 348 347 346 346 345 345 344 343 342 343 344 344 346 346 346 346 348 348 348 348 347 348 347 347 348 347 347 347 346 345 344 344 344 345 344 343 342 340 339 339 341 341 338 335 336 339 337 339 337 336
353 355 355 358 357 357 356 355 355 355 354 355 355 355 355 354 355 355 355 355 355 355 355 355 355 355 354 354 353 352 352 351 350 350 348 347 347 346 345 344 343 343 344 344 343 345 346 346 347 346 347 347 348 347 347 346 345 346 347 347 346 346 346 345 345 344 344 344 344 343 342 341 340 339 340 341 338 335 331 332 333 336 336 337 337
354 354 356 357 358 357 356 355 356 355 354 355 355 355 355 355 355 354 354 354 354 354 354 354 353 353 353 353 352 351 351 351 350 349 348 348 347 345 344 344 344 344 343 342 343 347 346 346 346 346 347 347 348 348 346 345 346 347 347 347 346 346 345 344 344 344 344 344 343 343 340 337 337 337 337 337 335 332 331 332 335 338 336 338 340
353 354 354 358 358 357 355 355 356 355 355 355 354 355 355 355 355 355 354 354 353 353 353 353 353 353 353 352 351 351 351 351 350 349 348 347 346 345 345 344 343 342 341 341 342 344 347 346 346 346 347 348 347 347 346 347 346 346 345 346 345 344 344 344 344 344 343 343 342 343 340 339 337 336 333 334 334 333 335 340 340 340 339 339 339
355 354 356 358 359 357 355 355 355 355 355 354 354 354 354 355 355 355 354 354 354 353 353 352 352 352 352 351 351 350 350 350 349 348 348 346 345 345 344 343 342 341 341 340 341 342 346 346 346 345 346 346 346 347 346 346 346 345 345 345 345 345 344 344 345 345 342 338 336 342 336 335 336 334 333 337 336 336 339 340 340 340 339 338 339
355 355 355 356 356 358 356 356 356 354 355 354 354 354 354 354 355 354 354 353 353 352 351 351 350 350 350 351 350 350 350 349 348 347 347 346 345 344 344 342 341 341 341 340 340 341 345 345 346 345 345 345 347 346 345 345 343 344 345 345 344 344 345 344 344 344 340 335 338 334 335 337 335 335 336 338 340 340 341 340 340 339 338 336 337
357 356 356 356 356 356 356 355 355 354 354 354 354 354 354 354 354 354 354 353 352 352 351 351 350 350 350 350 350 350 349 349 348 347 346 346 345 344 344 345 344 342 340 340 339 340 342 345 345 345 345 345 346 346 345 344 344 344 345 344 345 345 345 344 343 341 340 342 336 336 335 335 334 337 339 340 341 341 340 340 338 338 336 335 334
357 356 356 356 357 358 356 355 355 354 354 353 354 354 354 353 353 354 353 353 352 352 351 350 350 350 349 350 350 350 349 348 348 347 347 345 344 344 345 344 345 344 343 343 340 340 339 341 345 345 344 345 345 347 345 344 344 344 344 345 344 344 343 342 340 340 340 335 335 337 338 337 335 333 340 341 341 341 339 340 338 337 335 334 335
355 356 355 356 355 357 357 356 355 355 354 354 354 354 354 354 353 353 353 352 352 351 351 350 350 349 349 350 350 350 349 349 348 347 346 344 345 345 345 345 344 344 344 345 344 341 338 338 342 344 344 343 344 345 345 344 344 345 344 345 344 343 342 342 340 339 343 337 335 334 338 337 336 335 333 338 340 338 339 338 338 336 333 332 331
355 355 356 356 357 357 357 356 355 354 354 354 354 353 354 353 354 353 353 352 352 351 351 350 350 349 349 350 350 349 349 348 347 345 345 345 345 344 345 345 345 345 345 345 345 345 341 339 341 344 344 343 343 344 345 344 344 345 345 345 344 343 343 341 341 342 338 336 335 335 342 347 337 336 336 339 339 338 336 335 336 335 334 334 332
354 354 356 355 356 357 357 356 356 354 354 354 354 353 353 353 354 353 353 353 352 351 351 350 350 349 349 350 349 348 348 346 346 346 345 345 345 345 344 345 345 344 345 344 342 343 341 342 344 344 344 344 344 343 343 344 344 344 345 344 344 344 343 343 341 337 338 335 335 336 339 341 340 340 338 337 337 337 335 333 332 333 333 333 332
352 353 355 354 358 357 357 356 356 354 354 354 354 353 353 353 353 353 353 352 352 351 351 351 350 349 349 349 348 346 345 344 346 346 346 345 345 345 344 344 344 344 344 342 344 343 342 344 344 344 344 344 343 343 343 342 342 343 343 342 343 343 344 344 343 340 339 336 333 336 337 339 341 341 339 338 335 334 333 331 330 334 334 331 329
352 351 352 353 354 356 356 356 355 354 355 354 354 353 353 353 353 353 353 352 352 351 351 351 350 349 349 348 345 344 346 344 344 347 345 345 345 345 345 344 344 344 344 345 344 343 344 344 344 344 344 344 343 343 344 343 343 343 343 344 344 344 344 344 342 339 339 337 335 333 332 340 341 340 338 337 336 333 332 333 334 336 334 331 331
351 350 350 352 354 356 356 355 355 355 355 354 354 353 353 353 352 352 352 352 352 351 351 351 350 349 348 348 346 346 346 344 346 346 345 345 344 344 345 344 344 344 345 345 344 345 344 343 344 344 344 344 344 344 344 345 345 344 346 346 346 345 346 348 345 339 339 336 338 334 333 337 342 340 337 336 335 334 332 333 336 335 334 331 329
349 351 352 353 354 357 357 355 354 354 355 355 354 354 353 353 353 353 352 352 352 352 351 351 350 349 348 347 346 345 346 347 346 346 346 345 344 344 344 344 344 344 344 345 345 344 344 344 344 344 345 345 346 346 346 346 345 345 347 346 344 343 344 340 339 339 338 335 336 335 335 339 341 341 338 335 334 336 334 334 335 334 332 331 330
352 352 352 351 353 353 356 357 355 354 355 354 354 354 354 353 353 352 352 352 352 351 351 351 350 349 349 349 347 346 346 346 346 344 346 345 345 345 344 345 344 344 344 344 345 344 344 344 345 345 346 347 347 347 347 346 346 346 347 347 344 342 344 344 338 339 339 338 337 337 335 338 341 341 342 334 335 336 334 334 334 333 332 329 328
352 353 351 352 353 352 352 354 354 354 354 354 354 353 353 353 353 352 352 352 352 352 351 351 351 349 350 349 347 346 346 345 342 341 344 346 346 345 345 346 345 345 344 344 345 345 344 344 345 345 346 347 346 347 346 346 346 346 346 346 346 343 342 343 338 339 336 337 336 336 337 335 340 341 341 334 336 336 334 334 334 333 332 328 326
353 353 351 351 352 353 351 349 352 356 356 354 354 353 353 353 353 353 352 353 353 352 351 351 350 350 350 349 347 346 346 344 343 341 344 347 346 346 346 345 344 344 345 344 345 345 344 344 345 346 346 346 346 346 346 346 346 347 345 346 347 347 343 343 340 338 338 337 335 335 337 340 340 340 338 335 333 336 334 332 334 333 331 328 327
352 352 350 351 350 352 351 349 351 352 350 354 354 355 353 354 352 353 353 353 353 352 352 351 351 351 351 350 347 347 342 344 344 343 347 347 346 346 346 346 344 344 345 345 345 345 344 344 344 345 345 346 346 345 345 346 347 346 348 348 349 348 347 346 339 338 339 341 337 336 337 340 339 338 339 334 333 335 334 332 333 333 331 328 330
351 351 348 349 350 350 352 349 348 350 349 351 353 352 353 353 353 353 353 353 353 353 352 351 351 350 349 350 348 347 344 345 344 346 344 346 346 346 345 346 345 345 345 345 346 345 345 344 344 344 345 345 346 344 344 344 345 347 347 349 348 350 352 350 339 337 337 336 339 338 337 337 339 337 335 333 333 335 334 333 332 332 331 328 327
349 349 349 348 349 350 348 348 348 348 349 350 351 355 354 353 353 352 352 353 353 353 352 351 350 351 349 347 348 350 349 349 346 349 344 348 345 344 345 346 345 345 346 345 344 346 346 345 344 344 344 345 345 342 342 342 343 344 345 346 349 350 343 342 341 338 338 337 339 335 337 337 338 337 335 334 333 336 334 333 333 332 332 329 330
346 346 348 348 348 350 349 348 348 349 351 349 351 351 352 352 354 356 354 352 351 352 353 351 352 350 348 348 344 342 345 347 347 346 347 348 347 345 345 345 345 345 345 346 345 344 345 345 345 344 345 344 344 344 340 341 342 343 344 345 347 341 344 344 342 338 337 338 338 336 337 337 337 338 336 335 333 333 334 333 333 333 332 328 329
344 345 346 348 349 350 350 348 347 350 352 350 350 352 353 353 350 351 352 345 348 351 352 352 348 351 351 348 351 346 347 348 348 347 346 346 348 344 345 345 344 344 344 344 345 344 344 344 344 345 346 345 341 339 339 339 339 339 342 347 343 342 343 343 342 341 339 338 338 337 336 337 338 338 337 335 333 334 333 334 333 330 333 331 330
342 344 345 349 349 349 350 350 349 349 350 348 350 351 353 353 349 345 344 348 347 345 352 354 352 352 348 346 348 352 347 348 347 348 346 347 347 345 345 345 344 345 344 343 343 343 344 344 345 347 346 342 340 338 337 337 340 342 342 341 342 342 342 342 340 341 341 338 338 338 337 338 339 339 337 337 336 335 334 334 333 333 333 331 328
342 345 346 348 350 351 351 350 351 351 350 348 349 350 349 350 346 347 345 346 346 344 346 354 353 350 346 349 347 348 349 350 349 348 349 349 349 347 349 348 348 344 345 343 341 341 343 339 342 341 339 338 337 338 336 337 340 340 341 340 342 343 343 343 341 340 342 343 341 339 337 338 339 340 338 337 336 335 334 334 333 333 334 332 331
344 343 344 346 349 351 351 351 353 353 352 350 350 350 353 346 345 344 346 350 347 350 351 351 351 346 344 348 349 347 348 347 349 350 349 350 349 347 347 346 346 341 340 340 338 340 339 338 338 337 337 339 338 338 337 338 338 337 339 340 340 343 342 342 341 343 344 343 342 340 339 338 339 340 339 337 337 336 335 334 333 331 334 333 332
342 341 345 346 348 351 351 351 351 352 353 353 351 351 349 352 353 353 349 342 345 346 350 350 348 346 347 348 345 345 345 345 346 348 348 349 347 348 347 348 345 341 340 337 338 340 339 339 337 338 337 337 336 336 335 335 338 336 339 338 339 340 342 341 340 341 343 342 342 340 340 339 340 340 338 338 337 337 335 334 333 329 333 334 333
342 342 343 345 347 349 352 351 350 352 352 353 352 349 351 352 352 350 350 350 349 348 348 350 350 346 348 347 347 344 344 343 345 347 348 348 346 347 348 347 342 341 339 338 336 335 338 337 339 337 335 334 333 335 335 335 336 338 337 338 338 341 341 340 343 343 343 345 343 341 339 341 340 341 339 338 338 337 336 335 334 332 333 332 333
342 343 342 344 346 348 351 350 351 351 352 353 352 350 349 351 351 349 349 349 347 348 349 347 345 345 345 345 346 346 344 344 346 347 348 347 347 348 349 347 342 339 340 337 337 338 338 337 337 336 336 335 334 335 334 335 339 339 338 337 338 338 340 342 344 343 343 344 345 342 341 342 340 342 341 338 337 338 337 336 335 334 334 333 333
344 345 343 344 346 349 349 350 350 350 352 353 352 351 350 349 350 351 349 348 346 350 351 347 347 342 344 346 348 347 346 344 346 347 346 347 349 350 348 348 341 342 340 339 337 336 335 334 336 335 332 334 334 335 335 336 335 337 337 339 340 340 341 341 342 341 342 344 346 345 343 341 341 343 342 340 339 339 339 337 335 335 334 334 334
345 344 344 343 345 347 347 349 350 350 353 352 351 351 350 350 350 351 351 349 349 351 350 349 345 341 340 344 348 345 346 347 347 347 346 346 347 348 348 347 340 341 341 340 340 338 336 334 334 333 335 333 333 334 334 336 337 336 338 338 339 343 342 343 342 341 339 342 344 347 341 342 343 343 343 342 340 340 339 338 336 335 336 335 335
343 343 344 345 344 345 347 349 349 350 349 352 351 351 350 350 350 349 350 349 350 349 348 348 347 342 341 342 341 341 343 349 348 347 347 345 345 346 347 347 339 341 340 339 338 338 337 336 336 338 338 338 336 337 337 336 337 337 338 337 339 341 340 342 341 340 341 343 342 345 345 343 342 344 344 342 339 339 339 338 338 336 336 336 335
345 346 345 345 344 345 345 348 349 349 349 349 350 350 351 350 349 349 350 350 350 350 349 348 347 344 341 340 339 341 346 348 350 349 348 346 346 345 346 347 341 342 342 340 338 341 338 339 337 335 335 335 337 337 334 338 340 340 340 337 341 339 341 339 342 343 342 344 344 343 345 344 344 344 344 341 340 339 339 338 338 338 337 336 336
344 345 344 343 343 344 345 346 347 348 349 349 348 348 350 349 350 349 348 349 350 349 349 348 347 347 344 343 342 342 346 348 349 349 348 345 345 345 346 347 345 343 343 342 339 335 335 333 332 333 333 333 332 334 334 339 339 339 341 340 342 344 342 341 341 342 343 345 345 346 344 343 348 347 344 342 340 339 339 339 339 339 338 337 337
345 345 343 344 343 343 344 345 347 348 348 348 348 347 350 350 349 349 348 349 349 349 349 349 347 348 347 342 340 345 345 347 349 348 347 345 344 345 347 348 347 344 342 341 338 339 337 336 334 332 335 333 333 336 338 341 340 338 342 345 344 344 345 342 343 342 341 345 346 346 346 346 345 347 346 344 341 340 339 339 339 339 339 338 338
346 346 345 345 342 344 344 345 347 347 348 348 349 347 348 349 349 347 349 350 349 349 349 349 349 348 348 347 345 346 346 346 348 348 346 345 344 345 347 348 347 345 343 343 344 341 339 338 340 339 335 333 336 339 341 341 341 342 344 344 345 344 345 343 344 343 343 345 345 347 346 345 347 346 344 347 345 340 339 339 339 340 339 339 339
348 346 345 344 342 343 343 345 345 346 347 349 348 347 347 347 347 348 350 349 347 347 348 349 348 347 348 347 343 342 345 347 347 346 347 347 345 345 345 348 349 346 345 345 343 345 345 341 346 344 342 339 336 338 341 343 343 344 344 344 345 345 345 345 345 345 343 342 343 343 343 344 346 342 347 346 344 345 341 339 338 338 340 340 340
349 348 347 344 342 342 344 346 346 347 347 348 347 346 346 346 346 347 348 347 347 347 347 347 346 346 347 345 341 343 346 346 348 347 349 345 344 344 341 344 347 346 345 345 344 345 347 345 344 344 342 340 339 339 341 341 341 342 343 344 346 345 344 346 347 344 344 341 343 342 343 345 344 344 344 347 344 345 344 341 337 337 337 338 339
349 348 347 346 344 343 343 345 346 346 347 348 347 347 347 347 346 347 346 345 345 345 346 346 346 346 348 345 343 344 345 347 348 348 345 343 342 342 342 348 348 346 347 346 344 346 346 347 346 345 344 342 342 342 342 342 342 342 342 344 345 346 347 347 347 348 347 345 343 343 341 344 344 344 347 348 346 347 347 347 343 342 340 338 338
349 348 347 347 345 344 344 344 345 347 347 347 345 343 343 343 342 346 343 343 343 343 341 344 345 346 346 344 343 343 344 348 348 347 346 345 342 342 341 344 348 348 347 345 343 344 346 346 344 344 343 341 341 342 343 343 342 343 343 345 345 347 348 347 349 348 347 347 346 344 343 343 344 345 345 345 348 348 348 348 347 345 346 343 340
349 348 346 347 346 344 343 342 345 346 345 344 343 342 341 341 342 341 341 343 342 343 342 345 344 346 347 347 344 343 344 346 345 344 345 342 344 347 347 347 345 343 343 346 346 343 346 345 343 343 342 341 340 342 343 343 340 339 343 342 343 346 347 347 347 347 345 347 347 345 344 344 344 345 345 346 347 348 348 348 347 348 346 345 346
346 347 346 346 347 347 344 344 344 345 344 344 343 343 343 342 341 340 340 341 342 341 341 343 344 345 346 345 345 343 344 344 344 345 347 344 343 343 340 340 344 345 348 348 348 347 347 345 343 340 340 340 340 341 343 342 337 335 334 336 338 340 342 340 341 342 344 347 349 348 348 345 344 345 347 347 347 346 347 348 349 347 346 347 346
347 346 348 347 347 346 344 346 345 344 344 344 343 342 344 345 343 343 343 343 346 346 344 344 345 345 346 346 344 344 345 345 345 344 345 346 345 345 340 341 341 341 346 345 347 347 348 347 344 338 338 339 338 343 344 343 335 337 338 334 326 326 333 335 340 341 344 346 347 348 349 346 344 346 346 346 345 346 346 347 347 348 348 348 346
346 346 346 346 346 345 344 345 345 345 344 344 343 345 345 346 345 346 346 345 343 346 342 342 344 345 345 346 344 344 344 345 345 344 344 347 347 345 340 342 340 342 345 345 346 346 347 346 346 345 343 338 337 341 345 346 338 338 329 327 329 327 321 325 335 341 345 344 345 346 345 346 348 347 347 345 345 346 346 347 346 346 347 348 347
346 346 345 346 345 345 344 344 345 345 345 344 344 345 345 344 344 345 346 345 345 345 342 341 343 344 343 343 343 344 343 344 346 345 344 345 346 344 341 339 340 346 348 346 345 346 346 344 346 346 343 341 335 337 343 345 345 343 335 331 327 323 321 330 330 333 340 342 342 346 346 346 346 348 347 347 348 347 347 346 346 347 347 347 346
346 346 347 347 347 345 345 344 343 344 344 345 345 344 343 341 340 338 337 337 339 337 335 337 340 341 340 342 344 344 344 344 345 346 345 344 343 342 339 336 339 347 346 346 346 346 346 344 346 346 343 343 339 334 334 345 344 346 344 340 338 327 328 332 326 324 336 342 344 343 343 345 346 344 345 346 346 346 345 346 348 348 347 346 345
346 348 347 346 347 345 345 343 343 343 345 345 345 344 342 342 340 339 339 338 337 338 341 341 342 343 344 342 342 344 344 342 343 342 340 341 342 343 339 337 338 344 346 346 346 346 344 345 347 346 343 341 341 334 332 337 341 344 344 344 342 339 333 331 326 332 323 334 339 339 339 341 346 344 345 346 345 344 345 346 346 347 346 346 346
347 346 345 344 345 345 344 343 343 343 345 345 345 343 342 341 340 340 339 339 339 339 341 341 342 344 343 344 343 343 342 342 342 342 343 343 344 342 340 339 338 339 343 345 345 346 345 346 347 346 345 345 343 339 339 341 335 337 343 342 340 339 340 339 338 334 331 324 329 337 339 343 344 346 347 346 345 344 344 345 344 345 345 345 347
344 343 344 343 344 345 344 343 343 344 344 345 344 344 343 342 341 340 339 340 340 340 341 341 340 341 339 339 340 339 339 342 341 342 343 343 343 343 342 341 341 342 343 346 344 344 346 345 346 346 345 345 345 343 340 337 335 335 337 340 340 339 340 341 341 341 333 329 327 331 334 340 344 345 347 347 347 346 346 346 344 343 343 347 347
344 343 342 342 344 343 343 342 343 343 343 344 344 344 344 342 342 341 339 339 340 340 341 339 339 340 338 339 338 337 338 340 342 341 343 343 343 344 344 344 344 345 345 343 342 339 344 345 345 346 346 344 343 341 338 338 337 339 341 338 337 337 337 337 338 338 337 336 328 329 330 334 333 338 344 346 344 345 345 346 340 341 345 345 347
343 343 342 342 343 343 343 341 343 343 344 344 343 343 343 343 341 341 340 339 339 338 339 339 339 338 337 338 341 338 337 337 338 338 343 344 344 344 344 344 346 346 343 340 341 344 344 345 347 347 345 342 338 337 338 338 339 343 343 339 338 334 333 332 334 336 337 335 331 331 333 333 333 332 339 343 343 342 344 348 339 346 347 347 347
Wind_Speed
8 11 12 15 15 16 17 17 16 15 14 14 13 13 14 13 13 13 13 12 12 12 13 13 13 13 13 13 13 13 12 12 11 11 11 11 10 10 10 10 10 10 10 10 9 8 8 8 8 8 8 9 11 12 12 11 12 11 12 11 11 11 10 11 10 10 10 10 11 10 11 11 9 8 10 10 10 9 6 5 9 9 7 10 10
13 13 12 15 15 16 16 17 16 15 15 14 12 12 12 14 14 14 13 13 13 12 12 12 12 12 12 12 12 12 12 12 11 11 11 10 10 10 10 8 8 10 10 9 10 10 9 8 9 8 9 9 12 13 12 11 11 14 12 12 11 11 11 10 10 10 10 10 11 10 12 11 10 9 9 10 9 8 4 4 9 2 8 11 9
13 13 12 16 16 16 16 17 17 16 16 14 13 12 12 12 13 14 14 14 13 13 12 12 12 12 12 12 12 12 12 12 12 11 10 11 10 9 9 8 9 10 10 9 11 11 9 9 9 9 10 10 13 14 12 13 13 13 12 11 11 11 10 10 9 9 9 10 10 12 12 10 10 9 8 8 7 6 5 4 4 12 9 11 12
14 13 13 16 15 16 17 17 18 17 16 15 13 12 11 11 11 11 12 13 13 13 12 12 12 11 11 12 12 12 12 12 11 11 10 10 10 10 10 10 10 9 9 9 9 11 10 10 9 9 12 11 11 13 12 11 12 13 12 11 10 10 10 9 9 9 9 9 9 11 8 9 9 8 8 8 8 8 7 12 16 15 13 12 12
14 13 13 15 17 17 17 17 17 17 16 15 14 13 12 11 11 11 11 11 11 11 11 10 10 10 10 11 12 12 12 11 11 10 10 10 10 10 10 10 9 9 8 8 9 8 12 9 9 10 11 11 12 12 11 12 12 12 11 11 10 10 9 9 9 9 9 3 2 11 5 7 7 8 9 12 10 9 10 12 13 12 13 12 10
13 13 15 14 16 17 15 16 17 18 16 16 15 14 13 12 11 11 11 11 10 10 10 10 10 10 10 11 12 12 12 11 11 11 10 10 10 10 10 10 9 9 8 8 6 9 10 9 10 9 10 12 13 12 11 11 10 11 11 10 9 9 10 9 8 9 7 5 12 2 5 6 7 7 9 10 10 10 11 12 11 11 10 10 13
12 11 12 13 12 16 15 15 17 18 17 17 15 14 14 13 12 12 12 11 11 11 11 11 11 10 10 10 11 12 11 11 11 10 10 10 9 10 10 10 10 10 9 9 7 8 6 10 10 10 10 11 13 12 11 9 10 10 10 10 9 8 8 8 7 5 6 11 5 5 5 6 7 8 9 9 10 10 11 11 10 9 7 6 5
10 9 11 12 11 16 16 15 16 17 17 16 15 14 14 13 13 12 12 12 12 11 11 11 11 10 10 11 11 12 12 12 11 11 11 10 10 9 10 10 10 9 9 10 9 8 5 6 10 10 10 11 12 12 11 10 9 10 10 9 8 7 7 6 6 5 9 1 3 4 5 6 7 7 10 9 11 11 11 11 11 10 10 9 8
9 9 10 10 11 19 15 15 15 17 17 16 15 15 14 13 13 13 13 12 12 12 12 11 11 11 10 11 11 11 12 13 12 12 11 11 10 10 10 10 9 9 9 9 9 9 7 4 10 10 9 10 11 10 9 8 8 9 8 8 7 6 6 5 5 7 8 5 4 4 6 6 6 8 8 10 11 10 10 9 12 13 9 7 6
9 8 9 9 11 18 16 15 16 17 17 16 15 15 14 14 13 13 13 12 12 12 12 11 11 11 11 10 10 11 12 12 13 12 12 11 10 9 9 9 9 9 9 8 8 8 8 7 7 8 8 9 9 9 8 7 7 7 6 6 6 5 5 4 5 11 2 3 5 6 6 12 7 7 11 12 11 10 9 11 13 11 9 10 11
11 9 7 8 14 17 16 15 16 17 17 16 16 16 15 14 13 13 13 13 12 12 12 12 11 11 10 10 11 11 11 9 12 13 13 12 10 9 9 9 8 8 9 9 8 9 8 8 9 9 8 8 7 7 7 7 6 6 5 4 5 4 3 4 8 1 5 5 5 6 7 5 3 9 10 11 11 9 8 8 8 9 9 7 6
9 8 7 7 16 17 15 14 15 16 16 16 16 16 15 15 14 13 13 13 13 13 12 12 11 11 10 9 10 7 5 6 9 13 13 12 10 9 9 9 9 7 6 7 8 9 9 10 9 9 8 7 6 5 5 4 4 4 4 3 5 5 5 6 7 5 3 7 6 3 8 5 8 11 11 10 8 7 6 7 8 10 9 6 6
9 9 9 9 14 16 15 14 14 16 16 16 16 16 15 15 15 14 13 13 13 13 13 12 11 10 9 9 12 7 9 7 8 13 13 11 10 10 9 9 9 8 8 8 7 9 10 9 9 9 8 7 6 5 4 4 3 3 3 3 4 6 6 5 5 3 4 5 4 2 4 7 9 11 11 9 9 7 7 8 9 9 8 7 9
11 10 10 10 11 16 14 14 14 14 14 15 15 16 15 15 14 14 14 14 13 13 13 12 11 10 9 13 12 11 11 12 9 12 12 11 10 9 8 9 8 8 11 10 9 9 9 9 8 8 7 7 5 4 4 3 2 2 1 3 5 6 8 8 9 2 2 6 3 4 4 6 9 12 9 9 8 8 7 9 10 9 8 7 5
11 11 10 11 12 14 17 15 14 14 13 13 14 14 14 13 13 13 14 14 14 13 13 13 12 11 11 15 14 14 9 7 7 11 12 11 10 9 9 9 8 8 9 9 9 8 8 7 7 7 6 5 5 4 3 2 2 1 1 3 3 4 6 5 6 3 3 3 6 5 6 8 12 7 3 7 8 8 7 8 10 8 8 8 8
11 11 11 11 12 14 14 16 16 15 14 14 13 14 13 13 13 13 13 14 13 13 13 13 13 13 14 17 16 13 11 8 7 9 12 11 11 10 10 10 8 10 9 9 9 8 6 6 7 6 5 5 5 4 3 2 1 0 1 3 4 3 6 10 1 3 3 3 5 3 5 9 11 7 5 6 9 10 7 7 7 8 9 8 6
11 10 11 12 13 13 13 14 15 17 15 16 14 15 15 15 14 14 13 14 14 13 13 14 14 14 14 14 13 11 9 6 8 7 6 12 13 11 11 11 9 11 10 9 10 9 6 6 6 6 5 5 4 3 3 1 1 1 2 4 3 3 5 9 1 1 3 6 3 2 4 8 8 5 2 6 9 9 8 9 9 9 8 6 3
11 11 11 11 11 12 11 13 14 14 14 15 15 16 16 15 14 14 14 15 15 14 14 14 14 13 13 13 13 12 9 9 9 13 13 12 12 12 11 11 10 10 11 10 10 10 8 6 5 5 5 4 3 3 2 1 2 2 4 5 4 4 5 8 2 2 5 2 4 2 5 12 11 4 3 5 8 10 8 8 8 8 9 6 4
11 11 11 11 11 11 12 11 13 13 14 11 12 14 17 15 15 15 16 16 15 15 15 14 13 13 13 14 13 13 11 8 10 12 11 10 10 11 11 10 10 11 11 10 10 11 10 7 5 5 4 4 3 3 2 2 2 3 4 6 5 5 5 7 1 3 5 3 3 4 8 13 8 5 4 7 7 10 8 7 8 7 7 6 7
10 10 10 11 11 11 10 10 12 12 12 12 12 13 15 17 15 16 16 16 16 16 15 14 13 12 12 15 13 12 11 10 14 11 3 5 7 7 10 10 10 10 11 10 10 11 11 9 6 5 4 3 3 3 2 1 1 3 4 4 7 8 6 4 2 2 3 5 2 6 12 10 9 4 3 4 6 10 8 7 8 8 7 6 5
8 10 11 11 11 10 12 9 11 12 12 12 11 12 13 17 15 16 16 16 15 16 15 15 14 13 10 13 15 8 10 10 10 7 8 6 8 5 10 10 9 9 10 9 8 10 9 9 7 5 4 4 3 3 3 3 2 2 2 4 8 6 2 1 1 3 2 5 3 9 13 10 8 5 5 5 5 10 9 9 9 8 8 7 8
10 10 10 11 11 11 11 11 9 12 11 10 8 9 9 13 11 10 10 11 13 13 13 12 13 10 12 11 9 7 9 8 7 8 8 8 8 6 9 9 9 9 10 10 9 7 8 7 6 5 4 5 6 6 8 7 5 3 4 7 7 0 2 2 1 3 3 4 4 11 12 10 9 6 6 6 6 8 10 9 9 10 8 6 7
10 10 10 12 11 11 11 11 11 11 11 11 8 8 10 8 7 8 6 8 9 10 10 11 10 9 11 7 9 10 8 7 7 9 8 10 8 7 8 8 9 9 9 10 9 8 7 6 6 5 4 7 8 6 5 6 6 8 8 7 2 1 2 1 2 2 3 4 6 13 11 10 10 8 7 7 7 6 8 9 8 7 10 9 7
11 10 9 10 12 10 12 11 11 11 10 9 7 8 6 7 5 5 3 6 6 6 9 8 8 9 9 5 5 7 9 7 11 13 10 8 7 10 9 9 10 10 9 8 9 9 9 7 6 6 8 8 7 5 5 4 3 4 3 1 1 1 1 1 1 3 3 3 7 14 12 11 11 8 9 8 9 9 8 9 9 10 9 9 5
10 10 9 11 13 12 11 11 11 10 11 9 8 8 9 6 6 5 7 7 4 6 10 8 6 8 7 6 7 8 7 7 8 8 8 8 8 8 8 7 7 8 10 7 7 9 9 8 8 8 7 7 5 3 3 2 3 3 2 2 1 0 1 1 1 0 3 4 8 13 12 11 10 9 9 9 9 9 9 8 8 10 9 9 9
9 10 11 10 12 12 12 11 11 10 10 9 9 8 7 9 10 10 8 3 6 8 7 7 7 9 7 6 7 8 8 7 7 8 8 7 7 7 8 8 6 6 8 6 6 6 7 7 6 7 6 5 4 3 4 3 3 3 2 1 2 2 1 1 1 1 2 3 9 13 12 12 11 9 10 9 9 10 9 9 9 7 10 9 8
10 10 10 9 10 12 12 11 11 10 11 9 7 7 7 6 7 8 8 9 8 9 7 6 6 9 7 7 8 7 7 8 8 8 8 7 7 7 6 5 6 5 5 4 4 5 6 6 6 5 5 4 5 4 4 5 4 3 4 4 2 2 2 1 1 1 1 3 9 13 12 11 11 10 10 9 9 9 10 10 9 9 9 9 9
10 11 10 9 11 13 12 12 11 10 10 9 8 7 7 7 7 6 7 5 5 6 4 5 6 6 5 6 8 7 8 9 8 8 8 7 7 7 6 6 6 5 5 4 5 5 6 5 5 6 6 6 6 6 5 4 4 4 3 3 3 3 2 1 0 0 1 2 6 11 12 12 11 10 10 10 9 9 11 9 9 9 9 9 9
11 12 11 11 12 12 12 12 11 12 9 9 8 7 7 7 6 7 7 6 3 5 4 3 2 4 5 7 7 6 7 8 9 8 8 8 7 7 6 5 5 5 5 4 4 5 6 6 6 6 5 5 5 4 5 5 4 5 4 3 2 2 2 2 2 2 2 1 3 11 13 13 12 11 11 10 10 10 10 8 9 9 9 9 8
10 11 11 11 11 12 13 13 12 11 9 8 8 7 7 7 7 7 7 7 7 7 4 5 3 3 4 6 6 6 6 7 7 7 8 8 7 7 6 5 5 4 5 5 5 5 6 7 6 6 6 5 4 5 4 5 6 5 3 2 2 3 2 2 2 1 1 2 1 8 14 12 13 11 11 10 10 10 10 8 8 8 9 9 9
11 11 11 11 10 12 13 13 12 11 9 9 8 8 7 7 7 6 6 7 7 6 6 5 4 4 4 5 4 2 5 7 7 7 7 7 7 6 6 6 5 5 4 4 5 5 6 6 7 6 5 5 5 4 6 4 4 4 4 4 4 3 2 2 2 1 2 2 3 5 9 14 12 12 12 11 10 9 10 9 9 9 9 10 10
12 12 10 10 11 13 14 13 13 11 11 9 9 8 8 8 7 7 7 7 7 6 6 6 7 7 3 4 3 4 10 6 6 7 6 6 6 6 6 6 5 5 5 4 5 5 6 6 5 4 3 3 4 4 4 4 4 3 4 5 4 3 4 2 1 1 2 1 2 3 7 8 13 12 12 11 9 9 9 9 10 10 11 10 9
9 11 11 11 12 13 12 13 13 12 12 12 9 9 8 8 8 8 7 7 6 6 6 6 7 8 7 5 6 8 8 6 4 5 6 6 6 6 6 6 6 6 5 5 6 5 5 5 4 4 5 6 5 5 5 4 4 3 4 3 3 4 2 2 2 1 2 2 3 3 4 8 9 12 13 11 10 9 9 10 12 12 12 11 10
10 10 12 12 11 9 9 10 13 13 13 11 10 9 8 8 8 8 8 7 6 6 6 6 6 6 7 9 8 9 6 5 5 5 5 5 5 6 7 6 6 6 6 5 6 6 6 6 7 6 6 6 7 6 5 5 4 4 4 3 2 1 2 2 1 1 1 3 3 3 4 7 7 7 9 12 11 10 10 11 12 13 12 12 12
10 11 13 13 13 11 10 10 12 14 13 12 11 10 9 8 9 8 8 8 7 6 6 6 6 7 7 5 7 7 6 5 4 4 6 4 6 6 6 6 5 6 6 6 6 5 6 7 6 7 6 7 7 6 6 5 4 4 3 2 2 2 1 2 0 4 2 2 3 4 3 3 7 8 6 7 10 12 11 11 12 12 13 12 12
13 13 13 12 13 12 11 12 13 14 12 12 11 11 10 9 9 8 7 8 6 6 5 6 6 6 7 7 8 5 5 6 5 5 5 6 7 7 6 6 6 6 6 6 6 7 7 6 6 6 6 8 6 6 5 4 4 2 2 2 1 2 2 1 1 3 1 3 3 3 4 3 3 2 8 6 5 9 12 12 12 12 11 12 12
13 14 14 14 13 13 12 12 14 14 13 12 11 10 9 9 9 8 7 7 7 6 6 5 6 6 7 8 5 6 7 6 7 7 5 6 6 6 7 7 6 6 6 6 6 6 6 7 6 6 6 6 6 6 6 4 4 3 3 2 2 2 2 2 2 2 2 4 3 5 4 4 3 4 3 9 6 5 12 13 10 10 10 11 12
13 14 15 14 14 13 12 12 12 13 11 11 11 10 9 9 8 7 7 7 7 6 5 6 6 6 6 7 6 7 9 10 8 7 6 6 3 3 5 8 8 7 7 7 7 7 6 6 6 6 6 5 5 6 5 5 4 3 3 3 3 2 2 3 2 3 3 3 3 3 2 1 3 5 5 4 6 8 7 12 13 11 10 10 11
11 14 14 13 13 13 11 11 11 12 11 10 10 10 9 9 7 7 8 7 7 7 6 6 6 6 6 8 9 9 8 8 8 8 7 7 5 4 5 7 8 7 7 7 8 7 7 6 6 5 5 6 5 4 4 3 3 4 4 4 3 4 3 3 4 3 3 3 2 2 3 4 3 4 4 4 4 4 5 6 8 8 9 15 12
11 13 15 14 13 13 12 11 11 11 11 10 10 9 8 9 9 7 8 8 8 6 5 7 6 6 7 9 9 8 8 8 7 7 6 6 6 6 9 10 8 7 7 8 8 8 8 8 7 6 6 5 5 4 4 4 4 4 4 4 4 4 5 4 4 4 3 3 3 3 3 4 4 4 5 5 5 5 5 5 5 6 5 12 15
12 14 15 14 14 13 13 14 11 11 10 10 10 10 10 10 9 10 10 9 9 7 8 8 7 7 8 8 8 7 8 8 7 7 7 6 6 5 5 7 6 6 9 8 8 8 8 7 7 6 7 6 6 5 4 4 5 5 5 5 5 6 6 6 6 5 4 3 3 3 2 2 3 3 4 3 4 5 5 6 5 5 5 4 10
14 15 15 14 14 14 14 12 12 11 11 10 9 8 9 9 9 9 8 8 8 8 8 7 7 7 8 8 8 8 9 8 7 8 7 9 6 6 5 3 4 7 8 7 7 5 5 6 6 5 6 6 6 6 4 5 6 6 6 5 5 5 6 6 6 5 5 3 2 2 2 3 2 3 3 4 5 5 5 5 5 5 5 5 5
15 15 14 14 14 13 12 12 11 12 10 10 9 9 9 7 9 8 9 7 7 7 6 6 7 7 8 8 8 8 9 8 9 9 8 9 10 7 6 6 7 10 8 7 7 6 5 5 6 6 6 7 6 6 6 7 5 5 5 4 6 6 5 5 5 4 4 3 3 3 2 3 4 3 3 4 5 5 4 4 4 4 4 5 5
13 13 14 14 12 12 12 12 11 11 10 11 10 9 9 9 9 8 7 6 6 5 5 7 7 8 8 8 7 8 9 8 9 10 8 8 9 7 5 5 8 10 7 7 7 7 6 5 4 6 6 7 7 7 7 7 6 4 6 7 3 4 6 8 6 4 4 4 4 3 4 3 3 3 3 4 4 4 4 4 5 4 4 4 4
14 14 14 13 10 14 14 13 11 11 10 11 11 9 9 8 8 8 6 6 5 5 2 5 7 7 7 8 8 8 9 8 9 10 9 9 8 6 5 5 8 7 5 6 6 6 7 7 6 5 6 5 7 6 7 7 8 6 6 4 5 7 6 4 6 5 4 4 5 4 4 4 5 5 4 4 4 3 3 4 4 4 5 5 4
13 13 13 13 12 13 14 14 11 11 11 12 12 10 9 9 9 8 8 8 8 8 9 9 8 9 9 8 9 9 9 9 9 9 9 8 9 8 7 6 9 6 6 6 6 5 7 8 7 6 6 4 2 2 5 7 7 7 7 7 6 3 4 2 4 4 3 3 3 5 5 5 4 5 4 4 5 4 4 4 5 5 5 5 4
11 11 11 13 12 14 14 14 13 12 11 12 13 10 10 10 11 10 9 9 10 8 8 9 8 8 8 9 9 10 10 10 9 9 10 10 9 10 9 7 8 7 7 6 6 7 7 7 6 6 6 6 6 5 10 7 6 7 7 7 7 6 7 5 5 5 3 4 4 4 5 5 4 4 4 4 5 5 4 4 5 5 5 5 4
9 11 11 12 14 14 15 15 12 12 12 12 13 12 11 11 11 11 10 9 10 9 9 8 8 8 8 8 8 7 10 10 9 10 10 10 10 9 8 9 10 10 8 7 7 7 7 6 7 7 6 6 7 8 6 4 6 7 7 7 8 8 7 6 5 5 2 6 3 5 4 5 5 4 3 4 5 6 5 5 4 5 4 6 5
10 11 10 11 13 13 14 15 13 13 12 14 13 13 11 11 11 11 11 10 10 9 9 8 9 9 9 8 8 7 4 7 10 11 11 12 11 11 12 12 11 10 8 8 6 7 8 7 7 7 7 6 6 6 5 4 5 5 7 7 7 6 5 5 4 4 5 5 7 8 6 5 4 4 4 4 5 5 6 6 4 7 6 7 5
9 10 10 11 12 13 14 16 14 12 13 14 13 14 12 12 11 12 13 11 10 9 9 10 10 9 10 10 10 8 7 8 8 11 12 12 12 11 11 12 12 11 9 8 8 11 9 8 7 7 6 6 4 4 5 5 8 8 3 5 6 4 5 5 5 5 5 6 6 4 6 6 6 5 5 5 5 5 5 4 6 5 5 5 6
6 8 9 10 11 12 15 16 15 12 13 14 15 14 13 12 12 13 14 14 13 12 11 11 10 9 9 10 9 9 9 7 6 8 11 11 11 11 11 11 10 9 9 9 10 9 7 7 6 7 7 7 6 6 6 6 9 7 7 5 6 4 4 6 6 6 5 4 5 4 2 5 4 6 5 6 5 5 3 3 4 2 5 4 6
Wind_Direction
166 153 147 139 148 149 146 146 147 148 150 149 147 143 141 138 135 135 136 136 135 131 137 137 136 138 139 139 135 137 136 135 133 132 133 132 129 128 128 129 129 135 130 116 113 112 108 105 96 99 101 104 104 111 109 118 118 115 115 113 107 105 109 106 107 102 95 93 97 110 104 94 92 88 90 88 95 100 111 147 165 104 94 92 87
164 157 151 148 147 150 147 146 147 148 151 151 147 143 137 137 135 136 135 135 137 135 136 136 134 136 137 137 135 136 134 133 133 134 133 131 128 130 132 126 122 112 103 117 121 109 106 106 104 103 101 106 110 110 109 115 119 115 114 112 112 108 106 106 99 98 101 103 101 94 93 89 87 95 102 104 98 91 91 13 334 247 81 90 90
162 158 151 147 151 150 148 150 151 151 155 154 151 147 142 134 132 132 134 134 134 138 136 139 141 140 141 139 138 136 135 135 135 134 133 130 127 127 121 117 113 116 119 121 118 116 110 104 105 103 100 108 111 110 117 116 113 110 110 109 108 106 102 102 105 107 111 108 114 116 108 96 88 89 97 102 101 102 74 17 18 78 102 104 97
157 158 154 145 151 153 152 153 155 154 154 155 154 147 140 134 131 129 131 134 136 136 136 139 143 143 140 140 141 139 139 139 137 134 132 129 132 133 133 126 121 119 124 119 117 112 104 107 105 105 103 103 106 107 104 107 108 107 107 106 109 109 106 97 98 107 113 115 138 157 135 110 100 87 96 102 100 101 88 76 73 80 95 94 89
159 157 153 153 159 157 158 155 155 155 154 156 152 147 145 141 135 133 131 133 132 133 133 136 138 137 139 143 142 141 139 138 134 128 125 125 125 123 118 115 117 112 105 104 105 97 106 108 112 110 109 106 104 103 106 108 107 107 106 104 100 97 97 101 105 113 106 135 166 246 92 81 95 107 109 108 112 105 89 90 95 101 103 99 102
162 158 158 162 163 160 158 155 154 156 156 155 152 152 152 147 142 138 136 136 135 137 139 143 144 145 145 147 145 143 142 139 134 131 129 128 126 120 114 111 106 105 103 101 110 120 113 111 112 112 110 108 97 98 104 97 106 105 103 103 104 103 101 105 110 112 137 158 232 148 80 90 106 111 102 101 98 101 110 105 110 105 101 103 103
161 155 158 161 161 158 157 155 155 157 155 155 156 155 152 148 146 144 141 141 142 143 145 147 150 151 153 152 149 145 146 141 138 137 135 132 130 122 121 122 119 118 121 119 124 122 120 123 115 114 110 109 113 110 108 118 112 110 107 104 101 103 107 106 120 145 173 210 77 112 115 104 102 106 110 113 118 120 113 106 95 99 101 97 110
163 163 161 161 161 151 157 154 155 154 155 155 156 155 154 152 150 149 146 145 145 147 148 151 154 154 154 155 154 153 149 143 144 140 135 130 131 132 129 123 123 124 125 121 122 126 107 123 117 118 110 111 110 116 122 122 122 111 111 107 105 109 111 122 122 179 248 1 97 94 113 94 97 97 132 128 119 124 114 108 104 88 78 74 96
168 165 167 160 158 148 152 150 152 154 155 156 158 159 157 157 155 152 151 149 147 148 151 154 154 156 158 160 161 156 151 148 144 139 136 135 139 135 130 126 127 125 121 128 132 126 130 142 136 118 110 109 110 117 126 123 116 121 119 115 114 113 120 121 196 209 215 77 93 106 107 127 117 108 112 110 128 118 103 106 115 104 88 66 71
168 169 165 166 151 145 150 149 151 155 155 158 161 161 160 160 158 156 153 151 150 150 154 157 157 158 163 166 162 160 157 152 144 144 138 140 137 136 131 129 126 122 120 115 113 124 127 135 118 109 112 111 109 113 117 123 123 120 126 130 133 127 128 166 226 234 35 124 94 113 51 341 125 114 113 110 106 105 92 63 59 61 77 83 69
170 164 170 167 143 144 149 152 153 155 158 161 163 164 162 162 162 159 157 155 153 154 157 159 159 161 165 171 164 160 166 141 151 142 142 141 141 141 136 129 117 120 118 126 127 122 128 137 128 128 124 117 117 116 122 129 138 145 141 170 187 172 153 219 238 328 66 76 99 95 96 306 73 109 116 111 105 101 95 86 86 100 107 98 89
167 160 165 154 133 150 150 155 155 156 161 163 163 166 165 165 164 162 161 158 157 158 158 161 163 164 168 171 150 148 104 167 158 143 146 145 145 140 133 124 123 122 114 105 114 126 131 125 128 126 121 122 125 127 135 149 150 157 173 196 220 220 220 233 267 75 63 59 58 98 141 161 110 111 116 109 104 105 110 112 116 119 119 113 114
164 163 161 155 153 152 154 156 157 160 163 163 165 167 167 167 167 165 163 162 162 162 161 163 165 165 163 148 125 163 155 169 206 146 146 147 142 137 140 131 123 114 99 99 122 119 113 122 123 121 127 135 139 151 156 173 180 188 206 230 255 255 245 247 261 92 79 78 99 98 99 105 112 118 116 114 113 114 128 121 121 116 116 104 101
164 168 165 162 154 151 152 160 163 163 165 165 166 169 170 169 169 168 167 165 166 165 164 165 164 161 157 132 150 171 164 177 193 152 145 144 139 139 140 124 118 114 105 116 118 107 116 123 120 123 132 134 144 156 170 178 196 212 218 284 273 264 247 238 256 128 144 109 96 77 75 116 119 129 133 117 120 116 110 116 120 122 113 99 95
165 170 169 160 155 160 154 161 167 166 165 168 167 169 171 169 169 171 170 168 167 167 166 165 164 161 155 152 169 177 165 172 171 162 142 143 139 145 137 130 137 120 114 111 105 106 111 120 127 135 135 140 144 158 172 178 195 208 306 301 288 276 249 226 182 104 137 109 113 179 128 93 121 141 147 132 128 124 129 128 129 114 101 104 107
168 166 173 162 165 160 164 164 170 171 168 168 170 171 168 167 170 171 170 170 169 169 168 168 166 165 167 162 168 161 161 163 159 170 141 146 149 153 147 144 147 129 123 117 111 110 118 124 131 134 134 133 142 149 161 168 185 248 316 308 291 271 273 280 23 100 116 140 106 85 102 100 119 153 208 131 135 136 129 131 122 114 108 110 117
169 168 175 173 169 166 166 170 170 171 171 172 174 173 170 170 171 171 174 170 171 171 171 172 172 172 171 166 151 149 159 140 91 349 171 155 157 161 155 153 152 134 130 129 123 120 119 126 127 128 129 124 130 133 133 118 0 9 297 282 284 276 286 297 3 164 90 67 86 114 107 117 138 157 213 125 133 132 134 113 116 119 110 107 126
168 174 177 178 174 171 167 171 171 178 175 177 176 177 176 172 173 174 175 172 173 174 175 176 175 171 172 154 145 150 132 122 131 169 226 167 161 163 154 151 148 140 137 139 135 128 127 124 120 116 111 118 113 103 92 61 9 320 281 276 276 269 268 275 276 110 88 124 114 88 92 104 143 176 177 199 138 138 130 127 130 126 119 112 168
171 178 177 177 181 176 171 170 178 178 181 178 182 181 181 178 178 179 177 176 176 177 178 178 172 171 171 146 143 134 126 143 165 193 219 160 166 158 152 152 152 149 149 148 143 136 134 130 125 115 119 116 101 85 79 53 348 292 288 281 279 270 249 253 218 99 101 176 101 121 93 125 150 169 248 167 149 138 138 138 138 130 124 144 159
175 178 179 182 183 183 179 178 180 184 182 183 184 182 184 184 182 183 183 180 180 180 178 175 172 175 172 145 134 130 133 161 195 191 170 169 164 168 158 158 161 161 154 155 150 143 139 137 130 129 118 116 105 95 93 92 300 297 274 290 265 252 221 220 44 75 115 74 14 92 113 137 152 169 166 155 171 156 148 140 137 138 136 134 136
179 183 184 181 182 188 184 188 184 186 187 186 186 180 183 184 186 190 188 186 184 184 179 176 176 172 164 142 129 141 164 183 185 178 164 175 178 180 174 164 165 161 147 155 162 147 140 136 141 134 142 136 161 169 143 168 177 260 294 259 259 249 85 96 122 97 70 118 169 91 124 140 163 175 160 159 193 158 150 147 146 146 149 164 163
183 184 189 182 184 185 185 192 185 190 189 188 190 180 181 189 185 190 196 196 195 190 185 187 180 171 159 147 135 176 187 181 164 173 162 178 184 188 176 177 172 167 157 157 160 157 147 142 146 156 146 175 213 217 173 165 177 220 232 245 246 180 97 70 47 87 101 104 108 111 133 149 165 177 168 165 189 172 150 149 152 152 156 155 160
192 187 184 188 190 187 185 191 189 192 190 196 191 184 179 171 182 205 190 215 223 211 202 198 179 168 164 143 149 181 174 159 171 170 180 175 178 177 183 196 182 175 169 164 172 172 163 161 156 164 173 206 226 217 204 176 165 179 220 229 240 28 67 63 97 107 95 66 95 125 141 157 167 183 170 164 175 173 162 155 163 168 165 170 180
191 190 183 189 192 191 186 187 188 187 193 196 196 188 161 188 157 169 231 208 209 228 236 198 183 174 134 166 165 153 161 185 170 166 162 174 173 190 188 193 193 179 179 182 171 177 171 168 163 166 209 219 217 207 216 187 178 189 206 249 293 131 219 119 88 95 94 122 97 134 151 163 173 186 170 172 175 175 165 167 171 173 171 172 194
188 187 190 191 193 192 187 189 188 187 191 192 196 194 166 190 171 188 204 209 214 211 229 195 192 155 126 177 159 158 156 169 170 165 177 176 179 180 180 195 187 183 182 203 190 171 192 197 185 202 213 208 215 215 240 183 214 211 206 242 230 180 217 160 86 32 102 105 109 143 158 170 179 188 180 174 179 175 165 174 188 170 173 176 184
182 188 194 191 194 195 192 185 188 188 193 197 199 189 186 176 191 197 199 224 212 227 197 193 186 125 199 162 161 167 157 167 169 174 173 179 178 183 181 194 178 180 189 198 190 187 195 200 196 193 204 206 208 226 208 239 218 202 231 225 255 212 198 182 146 107 93 116 126 150 164 173 181 187 187 187 185 177 173 181 180 205 172 187 186
184 195 187 192 196 197 197 189 187 185 192 200 200 193 192 188 190 184 178 194 200 223 208 183 191 134 191 158 161 167 165 165 171 180 179 176 183 183 189 176 194 176 172 201 179 184 201 186 198 205 206 217 210 204 203 212 245 235 190 206 208 225 204 221 150 147 94 109 129 155 168 174 184 189 191 195 193 187 181 184 190 183 197 188 183
182 188 186 184 199 198 196 194 189 188 187 195 197 202 193 195 192 175 198 181 207 207 211 204 136 176 164 150 180 176 172 174 177 181 177 174 187 179 190 174 200 168 177 188 182 185 189 191 195 200 204 211 203 207 219 193 210 234 235 206 212 224 241 174 176 134 119 117 133 158 169 177 185 191 192 194 201 195 186 197 186 186 209 195 192
182 185 184 186 194 200 198 198 196 189 187 190 192 197 194 194 191 186 198 167 200 235 216 101 63 205 156 165 195 180 181 184 183 184 172 177 181 175 188 180 203 167 166 188 181 170 182 187 189 204 199 210 213 212 214 226 189 219 222 225 231 224 203 211 210 190 162 180 152 148 168 179 185 190 191 197 199 198 203 191 186 191 206 204 205
182 182 182 188 186 195 200 199 199 195 189 189 195 192 190 192 194 197 196 184 192 208 182 159 189 169 180 188 198 196 186 194 185 186 181 171 178 176 183 186 187 165 186 171 176 178 177 183 187 203 193 206 222 200 220 216 215 215 225 237 211 246 196 224 240 217 142 144 121 137 170 179 183 188 194 195 198 200 203 196 187 195 201 203 209
177 183 186 184 179 191 199 197 199 198 188 191 192 192 189 195 192 203 194 193 194 186 186 165 167 162 235 196 214 249 251 198 192 188 180 174 177 181 186 180 185 179 187 172 170 172 175 176 192 192 206 208 204 202 210 225 234 226 211 218 215 222 229 224 223 240 203 170 167 149 170 176 183 190 189 197 196 200 198 192 191 197 203 208 211
181 183 185 180 180 190 196 194 197 196 194 190 190 192 190 192 197 199 204 201 189 189 185 179 173 155 226 213 221 201 220 204 199 187 181 175 175 184 188 185 187 180 191 174 168 169 171 177 181 190 225 240 217 219 212 232 244 236 219 221 215 205 208 185 232 158 292 177 167 178 163 170 183 186 189 185 195 196 192 194 192 199 208 219 226
179 180 181 178 181 188 193 194 196 192 198 197 194 192 189 192 193 200 202 198 193 194 186 180 173 166 171 203 233 227 220 190 194 192 176 184 176 183 191 193 190 181 175 188 158 160 172 166 182 201 195 205 223 214 228 208 220 238 251 182 189 195 191 223 121 180 237 171 222 218 167 172 170 183 182 184 184 192 196 194 200 201 207 213 219
169 176 181 181 179 184 190 191 196 195 196 197 197 196 190 191 192 195 198 195 198 199 182 178 174 155 160 192 200 222 216 186 187 193 193 185 178 193 191 196 199 176 174 177 176 174 175 182 182 192 193 209 204 210 212 218 200 205 202 137 219 90 215 227 208 123 210 236 200 222 238 148 158 172 180 177 181 192 196 203 202 208 214 213 216
166 170 179 179 178 181 187 190 192 195 194 195 197 200 192 195 191 191 194 199 195 200 184 175 179 172 168 163 211 211 202 187 190 196 201 186 183 198 193 201 194 181 176 182 179 173 176 182 190 194 185 208 212 197 205 214 195 215 131 188 155 190 239 278 51 275 174 183 223 217 238 258 133 173 165 171 178 185 200 205 212 213 213 218 219
169 166 171 175 177 180 186 192 190 194 191 195 197 201 201 193 195 189 188 193 198 194 184 182 183 173 167 174 186 175 214 192 202 196 197 197 195 196 189 200 190 191 184 175 191 182 180 191 188 213 197 201 205 195 205 200 214 143 201 206 137 239 256 287 291 261 258 245 203 192 223 225 213 200 131 160 169 181 194 206 217 219 219 221 227
168 165 168 170 175 179 185 192 190 193 191 189 193 199 205 203 197 191 187 187 199 199 190 187 184 181 172 181 170 185 186 203 200 195 190 198 202 195 192 193 190 189 187 187 201 194 189 181 189 200 207 216 201 194 200 201 187 186 202 209 202 240 250 263 250 269 249 221 235 199 214 215 204 145 206 143 172 176 185 203 210 225 228 230 231
166 167 166 167 170 180 185 189 188 193 191 186 191 195 203 204 201 190 185 188 196 200 193 192 189 184 174 179 178 195 185 196 197 191 193 195 208 186 212 208 194 185 191 199 202 196 192 189 189 193 204 208 219 200 205 201 205 193 198 206 212 235 244 246 256 265 252 246 192 246 228 224 205 200 184 183 174 176 184 191 200 211 226 236 237
168 169 167 165 165 175 184 186 187 188 188 186 189 196 198 204 198 194 186 195 189 203 192 196 192 188 184 182 186 195 196 195 195 192 192 194 199 192 223 212 192 188 193 203 200 199 188 189 196 189 207 211 223 223 215 225 215 220 218 209 213 215 249 253 263 247 267 294 303 257 206 200 207 195 187 186 197 190 196 186 194 210 209 213 228
171 170 169 165 166 171 181 181 187 184 183 184 186 191 199 204 193 187 194 195 200 184 217 203 194 191 188 186 188 196 193 196 193 189 183 206 211 206 191 208 200 187 199 200 196 196 193 185 191 196 192 213 225 221 205 215 216 216 221 219 223 225 238 251 250 265 268 252 239 230 227 176 199 190 195 209 181 198 204 205 217 214 227 188 206
174 173 174 169 167 171 177 181 184 181 182 184 185 187 194 201 199 196 194 191 200 191 191 195 194 193 195 184 185 192 197 195 191 190 195 202 223 218 193 209 200 196 211 194 199 196 190 191 187 193 195 197 216 207 205 220 213 210 213 225 221 228 237 240 245 243 248 233 230 228 217 222 207 186 207 200 190 200 202 205 209 227 228 236 190
182 178 180 171 167 170 177 179 181 178 185 185 184 188 198 201 196 199 201 193 193 195 197 189 193 193 192 188 191 189 194 195 194 196 197 200 208 212 209 229 222 218 201 193 190 202 199 193 195 194 206 206 212 210 202 212 210 226 205 207 241 242 236 240 233 225 226 214 218 248 224 232 223 206 191 193 204 208 206 205 213 218 236 239 233
178 179 179 171 165 171 177 181 181 181 182 180 182 192 195 205 211 207 202 199 199 203 191 199 194 196 189 187 191 195 195 195 195 197 198 205 204 201 208 210 190 219 205 198 190 195 201 209 196 201 199 202 216 196 206 213 227 219 235 249 225 218 186 229 205 189 194 192 172 196 235 222 214 249 209 216 206 201 210 206 206 221 232 249 257
178 178 179 175 168 171 177 181 180 182 181 184 188 189 191 195 207 214 206 207 198 193 168 207 197 199 198 195 192 197 200 200 197 198 198 202 202 197 203 224 207 216 207 199 198 201 195 211 215 206 215 203 203 199 206 215 231 230 224 224 216 242 199 195 180 165 168 172 172 179 203 209 210 212 244 224 222 209 191 193 205 210 228 236 243
180 177 179 178 171 171 174 180 176 181 183 179 184 182 179 193 203 204 205 196 200 170 159 204 198 203 207 198 202 201 204 204 202 203 194 199 195 192 190 214 224 221 194 205 209 207 204 208 212 209 208 218 203 211 199 213 220 237 269 234 209 214 233 129 195 162 166 191 166 176 177 195 192 203 213 220 224 213 203 199 195 206 213 215 219
181 178 178 179 169 167 173 178 176 179 181 180 181 177 175 182 186 197 198 202 199 193 198 202 193 196 204 202 202 202 203 207 204 205 198 194 193 188 184 197 239 202 200 205 210 201 207 210 205 208 206 210 220 66 272 214 223 230 241 259 305 346 318 130 237 167 219 205 163 179 179 187 165 193 191 200 200 208 204 196 194 198 196 204 189
181 176 173 179 173 163 171 179 179 180 183 178 177 175 176 183 186 192 204 212 217 214 204 204 202 200 198 199 205 204 201 199 211 204 210 203 195 189 184 190 230 214 203 208 207 204 202 203 198 202 202 205 200 191 221 223 216 227 232 242 253 239 232 249 231 158 193 298 212 187 192 162 177 185 175 192 202 196 201 202 188 191 177 191 176
182 182 178 178 181 167 167 179 182 181 179 176 178 179 177 181 182 190 199 211 216 214 200 200 200 198 197 192 202 205 210 200 200 211 208 203 200 182 182 194 204 218 207 210 209 205 208 193 192 200 202 213 215 222 235 260 243 219 215 232 235 237 245 246 272 276 247 185 214 266 171 167 177 176 165 189 190 196 198 202 198 158 177 167 162
198 189 180 183 182 176 168 177 183 182 178 177 180 181 182 179 182 190 196 206 212 209 203 201 197 194 202 194 201 208 224 226 202 206 204 203 198 194 193 193 205 205 205 201 213 220 208 192 182 191 202 211 223 226 227 234 269 282 219 219 230 233 225 235 246 252 254 254 197 183 152 154 172 167 174 192 193 192 203 171 212 149 205 147 157
200 192 190 186 186 182 178 178 184 184 179 177 182 182 181 182 186 192 196 200 204 206 204 204 207 195 194 190 197 199 204 216 212 203 205 203 198 196 197 194 193 198 199 200 197 217 205 194 193 192 193 209 214 237 223 214 236 248 257 235 220 227 244 227 233 235 254 268 288 186 176 176 191 165 174 182 201 193 189 179 105 270 141 165 153
191 195 187 189 187 186 181 179 184 184 181 180 183 182 184 185 191 193 198 200 201 205 203 204 202 194 198 202 197 196 201 209 213 223 210 206 201 199 200 197 193 194 197 199 210 204 194 200 188 177 189 196 200 209 233 238 237 234 234 235 252 248 280 263 219 215 230 233 244 263 223 218 199 136 206 173 198 179 156 84 198 186 161 168 138